Temp
75 75 75 75 75 76 76 76 76 77 76 77 77 77 77 78 79 79 79 79 79 79 78 78 78 79 80 79 79 78 78 78 78 78 78 78 78 79 80 80 79 78
74 75 76 76 75 77 76 77 77 76 76 76 77 78 78 78 79 79 79 79 79 79 79 79 78 78 78 79 78 78 78 78 78 80 78 78 78 79 79 79 80 79
74 75 76 76 76 76 78 77 76 76 77 78 78 77 78 79 79 78 78 79 79 80 79 79 79 78 79 79 78 78 79 77 78 79 79 79 79 78 79 80 80 80
75 76 77 77 77 77 77 76 76 76 77 77 78 79 79 81 80 79 78 79 79 78 79 79 79 80 79 79 78 78 79 78 79 79 78 78 79 79 79 79 80 80
76 75 76 77 77 77 77 77 77 77 77 78 79 78 78 78 79 80 79 78 78 79 79 79 79 79 79 79 79 78 79 79 79 78 77 78 78 78 80 79 79 79
76 76 76 77 76 76 77 77 78 78 78 79 79 80 79 79 79 80 80 80 80 80 81 81 80 80 80 79 78 78 79 79 79 78 77 77 79 79 80 80 79 78
77 76 76 77 78 77 77 77 78 79 79 80 80 79 80 80 79 79 80 80 81 80 81 80 79 79 80 79 78 78 78 78 79 78 77 78 78 78 80 80 79 78
78 77 77 77 78 78 78 78 78 78 79 79 80 80 80 81 80 81 81 80 81 81 80 81 80 79 80 80 79 78 78 79 79 78 77 78 78 77 78 79 79 78
78 78 77 77 78 78 79 80 80 79 80 80 80 81 81 81 81 82 80 80 80 80 79 80 79 80 80 80 79 79 79 80 80 79 78 78 78 78 79 79 78 78
76 77 78 78 78 78 79 80 80 80 81 81 81 82 82 82 82 82 81 79 80 80 80 80 80 78 78 80 79 79 79 79 79 79 79 79 79 80 80 79 78 78
76 77 77 77 78 79 79 79 80 80 80 81 81 81 82 82 82 82 81 80 81 81 81 80 79 79 79 80 80 80 79 80 79 79 79 79 79 79 80 79 78 74
74 75 76 76 77 78 78 78 80 80 80 80 81 80 80 81 81 82 82 81 81 81 82 81 80 80 79 80 81 81 80 79 79 79 79 79 79 79 80 78 75 72
73 73 75 75 75 76 77 77 78 80 80 79 78 77 77 78 79 79 80 81 81 81 80 81 80 80 78 79 79 79 79 79 79 79 79 79 79 79 78 76 76 75
72 72 73 73 73 73 74 74 75 75 75 75 76 76 77 78 79 79 79 79 79 79 79 79 78 78 78 78 79 79 79 79 79 79 79 78 78 77 78 77 75 75
71 72 72 74 74 73 74 74 74 73 73 74 75 75 75 75 77 79 78 77 77 75 75 76 76 76 77 77 77 78 78 79 79 79 78 76 76 76 76 76 75 75
71 72 72 72 73 73 73 74 74 74 74 74 74 74 75 75 75 75 76 75 74 73 72 71 70 70 71 70 71 74 77 78 77 77 77 75 74 73 74 73 73 74
71 71 70 70 71 72 72 73 73 74 73 73 73 73 73 74 74 73 73 72 71 70 69 69 68 68 67 65 67 70 75 76 76 75 73 72 72 72 72 71 71 72
70 70 71 71 71 71 72 72 72 72 72 73 73 73 73 73 72 72 70 69 68 67 66 67 66 65 62 64 65 67 70 75 75 73 72 71 71 71 71 71 71 72
70 70 70 70 71 71 72 72 72 72 72 72 72 73 72 72 71 68 66 66 66 66 65 64 64 63 62 63 63 64 66 72 73 73 72 71 71 71 70 70 71 69
69 69 70 70 70 71 71 71 71 70 70 71 71 71 70 68 67 65 64 64 64 63 63 64 63 62 60 61 61 63 65 70 74 73 71 71 71 71 70 69 68 66
69 69 69 70 70 70 69 70 70 69 70 70 70 70 68 66 64 64 64 63 63 63 63 62 63 59 59 59 60 61 63 70 72 71 70 69 67 66 66 66 65 65
69 69 69 69 70 70 69 69 69 69 69 70 67 65 65 64 64 63 63 62 62 62 62 61 61 58 57 58 59 60 67 72 72 71 68 65 65 65 66 66 65 65
69 69 68 69 69 69 69 69 69 69 68 67 65 64 63 63 63 62 63 62 62 61 60 60 61 58 56 56 57 61 68 70 70 66 65 64 64 65 65 65 66 65
68 69 68 68 68 67 67 67 66 67 66 66 64 64 63 63 62 61 62 63 63 62 62 60 61 59 55 55 56 59 68 68 67 66 66 66 66 67 67 65 66 70
69 68 68 67 66 66 66 65 65 65 65 65 64 63 62 62 62 60 61 61 63 64 65 61 60 60 55 54 56 59 66 67 66 64 63 63 64 64 65 65 65 67
68 68 67 66 65 65 65 65 65 64 63 63 62 62 61 61 62 62 61 60 62 62 63 62 60 60 58 53 55 57 61 65 64 63 63 63 64 64 65 65 64 64
MSLP
1017.51 1017.71 1017.91 1018.10 1018.18 1018.18 1018.34 1018.59 1018.62 1018.74 1018.83 1018.86 1019.07 1019.07 1019.07 1018.86 1018.83 1018.98 1018.98 1019.07 1019.15 1019.18 1019.22 1019.22 1019.27 1019.34 1019.30 1019.39 1019.42 1019.51 1019.54 1019.59 1019.54 1019.51 1019.59 1019.62 1019.71 1019.74 1019.83 1019.74 1019.74 1019.78
1017.39 1017.47 1017.59 1017.78 1017.98 1018.07 1018.18 1018.18 1018.39 1018.51 1018.59 1018.62 1018.59 1018.59 1018.59 1018.62 1018.66 1018.74 1018.86 1018.98 1018.98 1019.03 1018.98 1019.07 1019.07 1019.10 1019.18 1019.27 1019.30 1019.47 1019.51 1019.51 1019.54 1019.27 1019.54 1019.59 1019.54 1019.54 1019.59 1019.51 1019.51 1019.47
1017.22 1017.39 1017.51 1017.78 1017.91 1017.98 1017.98 1018.03 1018.15 1018.27 1018.39 1018.30 1018.30 1018.39 1018.39 1018.30 1018.47 1018.51 1018.59 1018.71 1018.86 1018.86 1018.91 1018.91 1018.95 1018.95 1019.03 1019.07 1019.15 1019.30 1019.39 1019.42 1019.51 1019.30 1019.39 1019.47 1019.34 1019.47 1019.34 1019.30 1019.34 1019.34
1017.07 1017.15 1017.27 1017.39 1017.54 1017.71 1017.74 1017.95 1018.07 1018.15 1018.18 1018.34 1018.34 1018.15 1018.15 1018.10 1018.18 1018.34 1018.42 1018.47 1018.66 1018.71 1018.66 1018.74 1018.78 1018.78 1018.83 1018.91 1018.98 1019.15 1019.15 1019.18 1019.10 1019.15 1019.30 1019.22 1019.22 1019.22 1019.30 1019.22 1019.27 1019.22
1016.91 1017.07 1017.15 1017.18 1017.30 1017.39 1017.54 1017.83 1017.95 1018.03 1018.07 1017.98 1017.98 1018.03 1018.07 1018.10 1018.18 1018.22 1018.27 1018.34 1018.39 1018.51 1018.51 1018.59 1018.54 1018.62 1018.62 1018.74 1018.83 1019.07 1019.03 1019.07 1018.98 1019.07 1019.22 1019.27 1019.10 1019.15 1019.07 1019.15 1019.27 1019.27
1016.62 1016.74 1016.86 1017.03 1017.10 1017.30 1017.51 1017.59 1017.62 1017.71 1017.78 1017.91 1017.83 1017.74 1017.83 1017.86 1017.98 1018.03 1018.07 1018.18 1018.15 1018.22 1018.30 1018.30 1018.42 1018.39 1018.39 1018.51 1018.66 1018.83 1018.83 1018.91 1018.83 1018.91 1019.10 1019.15 1018.98 1018.83 1018.86 1018.91 1019.07 1019.18
1016.47 1016.59 1016.71 1016.74 1016.91 1016.98 1017.15 1017.22 1017.27 1017.34 1017.42 1017.39 1017.42 1017.62 1017.59 1017.74 1017.83 1017.86 1017.86 1017.91 1017.98 1018.07 1018.10 1018.15 1018.18 1018.27 1018.18 1018.34 1018.51 1018.59 1018.59 1018.59 1018.54 1018.71 1018.86 1018.83 1018.83 1018.78 1018.71 1018.74 1018.86 1018.98
1016.15 1016.27 1016.42 1016.59 1016.74 1016.83 1016.91 1016.95 1017.03 1017.10 1017.07 1017.18 1017.34 1017.22 1017.30 1017.47 1017.59 1017.59 1017.62 1017.71 1017.83 1017.83 1017.83 1017.83 1017.83 1017.91 1017.91 1018.07 1018.30 1018.39 1018.42 1018.30 1018.42 1018.54 1018.71 1018.66 1018.66 1018.78 1018.59 1018.54 1018.54 1018.74
1015.95 1016.18 1016.30 1016.51 1016.71 1016.74 1016.78 1016.71 1016.71 1016.74 1016.74 1016.98 1017.07 1017.03 1016.98 1017.10 1017.22 1017.30 1017.42 1017.47 1017.59 1017.59 1017.59 1017.59 1017.59 1017.66 1017.74 1017.91 1017.95 1018.07 1018.15 1018.10 1018.07 1018.22 1018.42 1018.51 1018.54 1018.47 1018.27 1018.22 1018.42 1018.47
1016.03 1016.10 1016.30 1016.42 1016.62 1016.62 1016.71 1016.59 1016.54 1016.54 1016.51 1016.66 1016.71 1016.78 1016.95 1016.91 1016.91 1017.03 1017.15 1017.27 1017.39 1017.39 1017.39 1017.39 1017.47 1017.71 1017.74 1017.86 1018.10 1017.86 1017.83 1017.83 1017.78 1017.91 1017.98 1018.07 1018.07 1018.03 1017.95 1018.03 1018.18 1018.27
1015.95 1016.03 1016.22 1016.34 1016.42 1016.42 1016.47 1016.42 1016.47 1016.51 1016.54 1016.59 1016.62 1016.74 1016.71 1016.74 1016.78 1016.71 1016.91 1016.98 1017.15 1017.10 1017.10 1017.15 1017.18 1017.15 1017.30 1017.34 1017.30 1017.34 1017.47 1017.51 1017.54 1017.59 1017.66 1017.71 1017.71 1017.66 1017.74 1017.78 1018.03 1019.03
1016.18 1016.15 1016.22 1016.30 1016.34 1016.39 1016.39 1016.34 1016.30 1016.39 1016.47 1016.51 1016.59 1016.71 1016.66 1016.62 1016.74 1016.74 1016.78 1016.83 1016.71 1016.66 1016.66 1016.71 1016.78 1016.83 1016.83 1016.91 1016.98 1017.10 1017.18 1017.22 1017.27 1017.39 1017.39 1017.42 1017.42 1017.47 1017.42 1017.83 1018.39 1018.30
1016.03 1016.15 1016.10 1016.15 1016.15 1016.18 1016.15 1016.18 1016.27 1016.22 1016.27 1016.51 1016.54 1016.74 1016.78 1016.74 1016.62 1016.59 1016.59 1016.66 1016.66 1016.54 1016.51 1016.47 1016.51 1016.62 1016.74 1016.78 1016.78 1016.83 1016.91 1016.98 1017.07 1017.10 1017.15 1017.22 1017.22 1017.22 1017.59 1017.71 1017.71 1017.86
1015.62 1015.74 1015.91 1015.98 1016.07 1016.15 1016.22 1016.30 1016.39 1016.47 1016.54 1016.54 1016.54 1016.62 1016.62 1016.51 1016.42 1016.42 1016.51 1016.54 1016.62 1016.71 1016.62 1016.54 1016.54 1016.54 1016.51 1016.51 1016.51 1016.54 1016.66 1016.74 1016.78 1016.91 1016.98 1017.03 1017.10 1017.30 1017.39 1017.59 1017.71 1017.66
1016.07 1015.66 1015.51 1015.74 1015.95 1016.10 1016.22 1016.30 1016.39 1016.51 1016.66 1016.74 1016.71 1016.66 1016.59 1016.51 1016.54 1016.62 1016.66 1016.66 1016.66 1016.74 1016.74 1016.66 1016.71 1016.83 1016.83 1016.83 1016.71 1016.54 1016.51 1016.59 1016.59 1016.71 1016.78 1016.95 1017.07 1017.30 1017.42 1017.54 1017.71 1017.74
1016.51 1016.27 1016.18 1016.27 1016.39 1016.30 1016.18 1016.10 1016.15 1016.30 1016.47 1016.54 1016.54 1016.59 1016.62 1016.62 1016.62 1016.59 1016.54 1016.59 1016.62 1016.78 1017.07 1017.22 1017.30 1017.34 1017.39 1017.27 1017.18 1017.03 1016.74 1016.71 1016.74 1016.83 1017.07 1017.47 1017.86 1018.18 1018.39 1018.39 1018.10 1017.98
1015.86 1016.15 1016.15 1016.22 1016.47 1016.66 1016.39 1016.18 1016.15 1016.30 1016.42 1016.62 1016.74 1016.66 1016.62 1016.59 1016.66 1016.83 1016.95 1017.15 1017.15 1017.18 1017.30 1017.54 1017.78 1017.83 1017.66 1017.51 1017.34 1017.22 1016.95 1016.95 1017.07 1017.34 1017.62 1018.07 1018.30 1018.47 1018.51 1018.78 1019.03 1018.74
1015.91 1016.22 1016.30 1016.15 1016.15 1016.74 1016.98 1016.54 1016.47 1016.59 1016.83 1016.95 1016.98 1017.10 1017.10 1016.98 1017.15 1017.34 1017.30 1017.30 1017.34 1017.51 1017.78 1018.03 1018.22 1018.18 1017.83 1017.54 1017.39 1017.27 1017.10 1017.03 1017.07 1017.22 1017.15 1017.18 1017.51 1017.78 1018.10 1018.47 1018.71 1018.71
1015.91 1016.30 1016.34 1015.91 1015.66 1015.71 1016.18 1016.54 1016.54 1016.62 1016.78 1017.03 1017.30 1017.34 1017.27 1017.39 1017.62 1017.78 1017.95 1017.74 1017.66 1017.78 1017.95 1018.27 1018.59 1018.47 1017.98 1017.59 1017.30 1017.18 1017.22 1017.07 1017.03 1016.98 1017.22 1017.62 1017.66 1017.86 1017.98 1017.98 1018.10 1018.34
1015.42 1015.95 1016.42 1016.42 1015.74 1015.22 1015.34 1016.10 1016.62 1016.86 1016.86 1016.78 1016.91 1017.10 1017.54 1017.91 1018.10 1018.27 1018.18 1018.10 1018.15 1018.15 1018.27 1018.54 1018.71 1018.59 1018.15 1017.66 1017.34 1017.07 1016.98 1016.95 1016.86 1016.95 1017.07 1017.34 1017.66 1017.95 1018.07 1018.03 1018.10 1018.42
1015.47 1015.66 1016.15 1016.54 1016.07 1015.47 1015.59 1016.18 1016.71 1016.83 1016.54 1016.59 1016.86 1017.27 1017.71 1017.98 1017.98 1017.95 1017.78 1017.71 1017.91 1018.18 1018.66 1018.95 1018.86 1018.74 1018.27 1017.78 1017.34 1016.98 1016.86 1017.03 1017.03 1017.15 1017.34 1017.59 1017.74 1017.98 1018.30 1018.59 1018.66 1018.66
1015.66 1015.66 1015.95 1016.15 1015.83 1015.66 1015.91 1016.27 1016.71 1016.62 1016.54 1016.71 1017.15 1017.59 1017.83 1017.83 1017.78 1017.62 1017.86 1018.27 1018.59 1018.83 1018.98 1019.03 1018.86 1018.59 1018.10 1017.66 1017.34 1017.07 1016.91 1017.07 1017.30 1017.59 1017.95 1018.18 1018.39 1018.51 1018.71 1018.91 1018.91 1018.86
1015.74 1015.86 1016.10 1015.91 1015.66 1015.62 1015.86 1016.15 1016.42 1016.74 1016.95 1017.07 1017.42 1017.59 1017.47 1017.42 1017.66 1018.10 1018.47 1018.74 1018.91 1018.95 1018.86 1018.78 1018.59 1018.42 1018.10 1017.66 1017.34 1017.15 1017.18 1017.47 1017.86 1018.47 1019.10 1019.27 1018.71 1018.86 1019.15 1019.47 1019.39 1019.18
1015.86 1015.98 1015.91 1015.62 1015.66 1015.83 1016.07 1016.30 1016.54 1016.83 1017.15 1017.27 1017.62 1017.91 1018.07 1018.15 1018.34 1018.62 1018.78 1018.86 1018.95 1018.91 1018.78 1018.71 1018.62 1018.54 1018.30 1017.95 1017.54 1017.34 1017.30 1017.62 1017.95 1018.30 1018.66 1019.39 1019.27 1018.83 1019.27 1019.51 1019.59 1019.34
1015.74 1015.66 1015.59 1015.62 1015.78 1016.10 1016.30 1016.62 1016.86 1017.07 1017.30 1017.54 1017.91 1018.22 1018.59 1018.78 1018.91 1019.03 1019.07 1019.07 1018.98 1018.83 1018.66 1018.71 1018.83 1018.78 1018.62 1018.18 1017.71 1017.47 1017.54 1017.78 1018.10 1018.59 1019.10 1019.47 1019.39 1019.54 1019.83 1019.86 1019.74 1019.54
1015.71 1015.83 1016.03 1016.27 1016.66 1016.83 1016.78 1016.95 1017.10 1017.34 1017.71 1017.98 1018.42 1018.66 1018.98 1019.15 1019.18 1019.22 1019.22 1019.30 1019.22 1019.15 1019.10 1019.10 1019.15 1019.07 1018.86 1018.54 1018.34 1018.22 1018.07 1018.27 1018.51 1018.83 1019.42 1019.62 1019.54 1019.83 1020.15 1020.18 1020.22 1020.15
Wind_Speed
7 6 6 6 6 6 6 6 5 6 6 5 5 6 6 6 5 5 5 5 5 5 5 6 5 4 4 3 3 3 3 4 4 3 3 3 3 3 3 3 2 3
7 7 5 5 5 4 4 5 6 6 6 6 6 6 5 5 5 5 5 5 4 5 5 5 5 5 4 4 3 3 4 4 4 2 3 4 4 3 4 4 4 3
6 6 7 7 6 7 6 5 5 5 5 6 5 5 5 4 5 5 5 5 5 5 5 5 5 5 5 4 4 4 4 4 5 4 4 5 3 3 4 3 3 4
7 7 7 7 6 6 5 5 5 5 4 4 6 5 5 4 4 4 5 5 5 6 5 4 5 5 5 5 5 4 5 5 5 4 4 3 3 3 4 3 4 3
8 6 6 5 5 5 5 5 5 5 5 6 4 4 5 5 5 5 5 5 5 5 5 6 5 6 6 5 5 5 5 5 5 4 4 5 4 4 4 4 4 5
6 6 6 6 6 6 5 6 6 6 5 5 6 5 5 5 5 5 5 5 5 5 5 5 5 6 5 6 5 5 5 5 5 5 5 6 6 4 4 4 4 4
8 7 7 6 6 6 6 6 5 5 6 6 4 5 5 5 5 5 5 5 5 5 5 6 6 6 5 5 5 6 6 6 6 5 6 6 5 6 4 4 4 5
9 7 6 6 7 6 6 6 6 5 6 5 6 6 5 5 6 5 5 5 5 6 6 6 6 7 5 5 5 6 6 5 5 6 6 6 5 6 5 4 5 5
7 6 6 7 7 6 7 6 6 6 5 6 6 5 4 5 5 5 5 5 6 6 6 6 6 6 4 4 5 7 7 6 6 6 7 7 6 6 7 4 5 5
6 6 7 7 7 6 7 6 5 6 5 6 6 4 4 4 5 5 5 6 6 7 7 7 5 1 4 5 7 7 7 8 7 7 6 7 7 7 6 5 6 6
7 6 7 7 7 6 7 6 6 5 4 5 5 4 4 4 5 5 6 6 6 8 8 7 7 8 7 8 7 7 8 7 8 7 7 7 7 7 6 6 2 8
3 4 5 6 5 5 6 5 5 5 5 4 4 4 3 2 3 4 5 7 8 8 8 8 7 8 9 8 7 7 7 6 7 7 7 6 6 6 6 2 6 7
3 3 3 4 4 4 3 3 3 4 4 4 3 3 2 1 2 1 3 5 7 7 8 8 7 6 7 8 8 8 8 7 7 7 7 6 6 6 2 4 5 5
7 6 4 3 3 3 3 2 2 2 1 2 3 4 3 2 1 0 2 3 4 5 6 5 5 6 6 7 7 7 6 7 7 6 7 6 5 3 4 4 4 4
0 4 6 5 5 5 5 4 4 3 2 2 2 1 0 1 2 4 5 5 4 5 5 4 3 4 3 4 5 6 6 7 7 7 7 7 4 5 4 3 3 2
3 3 3 4 2 2 4 6 6 5 4 5 4 3 2 2 3 2 1 2 3 4 5 4 4 4 9 14 11 7 6 4 4 5 4 5 4 6 6 4 3 3
5 3 3 3 3 4 4 5 5 5 5 4 3 3 3 3 2 1 2 4 4 4 4 3 4 5 12 8 10 12 8 5 4 4 7 6 5 3 4 2 2 4
3 3 4 6 6 4 5 2 3 4 4 3 1 2 3 2 2 3 4 5 5 5 5 5 5 10 9 8 8 8 7 5 5 5 5 6 5 5 3 3 2 4
3 3 5 7 8 8 6 3 4 4 3 2 2 3 3 2 2 5 5 4 5 5 5 5 4 10 10 8 6 6 7 5 3 3 4 4 5 4 4 5 4 3
8 7 6 3 3 7 6 5 4 4 5 5 4 3 4 4 4 5 4 5 5 5 4 3 3 9 10 8 6 6 2 1 4 5 6 6 5 3 4 4 4 4
6 8 5 4 6 5 5 5 6 5 5 4 4 4 4 4 4 5 4 5 6 5 4 3 4 11 10 8 7 6 4 2 5 6 7 6 6 6 6 6 6 7
6 7 7 7 5 4 5 6 6 5 4 5 6 5 5 5 5 6 6 5 4 3 3 3 3 9 8 9 9 8 4 2 4 5 6 8 9 8 7 6 6 6
4 4 5 6 4 5 5 5 6 6 6 6 7 5 5 6 6 7 5 4 4 3 4 3 5 9 10 10 9 8 7 7 8 9 8 6 9 9 9 7 6 5
4 5 4 5 5 6 7 7 7 7 7 6 8 7 6 5 5 6 6 5 5 5 5 6 6 10 12 11 10 9 8 9 9 8 7 3 2 10 7 7 7 12
5 4 5 6 6 6 7 7 7 8 8 8 7 7 7 6 5 6 6 5 5 7 12 9 7 8 12 11 11 10 8 7 8 9 9 7 7 9 6 5 6 9
7 7 7 7 7 5 7 8 7 8 8 9 8 7 7 6 6 6 7 7 6 6 6 6 7 7 10 13 13 14 12 9 7 10 8 6 7 8 7 7 6 8
Wind_Direction
196 192 194 193 198 197 187 189 192 191 203 197 195 211 211 224 214 211 218 213 211 217 220 220 220 227 233 226 223 218 216 225 237 217 222 221 232 231 251 252 233 224
192 189 192 189 194 197 193 195 193 199 206 205 210 210 216 219 217 200 214 221 218 228 227 226 219 220 224 224 218 218 238 232 244 208 213 219 225 219 234 236 244 237
179 181 179 179 186 191 191 190 192 203 206 214 213 211 219 210 216 202 211 211 220 230 227 227 226 222 216 218 212 214 225 232 241 232 221 234 232 228 241 239 241 239
188 185 178 178 179 187 185 175 191 197 201 205 212 213 210 218 200 207 211 220 218 228 230 223 226 224 218 217 206 218 222 226 234 222 226 241 238 234 247 243 249 256
187 185 181 172 173 176 173 181 194 192 197 214 218 214 215 218 213 205 210 218 218 232 224 224 220 223 215 217 203 220 220 227 224 212 219 238 236 221 235 226 236 248
192 187 183 180 175 170 176 187 193 190 201 204 216 208 214 215 212 216 215 213 211 220 231 224 222 225 216 216 204 219 222 225 224 201 221 229 240 229 234 227 232 241
190 188 190 183 179 181 185 192 190 195 198 208 198 217 212 218 222 227 229 226 225 225 228 234 231 235 220 210 210 217 219 224 223 203 218 232 229 243 234 230 229 239
194 188 187 188 189 189 194 191 194 196 201 194 205 216 200 214 221 228 223 224 232 234 236 235 235 235 220 205 213 217 226 216 222 216 222 235 224 240 234 222 219 234
191 187 183 188 199 205 207 202 200 201 197 202 213 222 206 207 219 223 237 235 236 243 240 240 237 236 241 229 223 218 226 225 222 218 219 232 233 233 238 224 222 225
192 192 187 191 201 208 212 217 214 211 204 207 214 217 222 221 219 230 234 233 235 244 238 238 229 146 257 235 242 241 231 234 231 224 222 227 231 237 234 228 227 229
196 190 196 201 210 206 211 205 209 216 217 221 218 217 221 225 242 235 243 238 234 233 240 230 216 210 218 231 233 232 235 236 239 234 228 229 232 236 239 223 195 59
244 209 208 213 215 218 219 214 206 207 212 228 232 247 267 283 291 293 267 252 239 240 238 238 216 217 232 239 232 225 226 234 238 235 235 234 236 231 233 80 104 157
156 186 203 202 203 201 191 182 194 186 174 143 117 122 117 96 81 3 298 276 270 258 247 243 236 215 220 223 226 226 223 227 233 232 232 231 231 237 135 157 172 177
149 150 144 146 142 135 122 102 78 66 84 123 155 164 189 187 198 143 342 4 334 315 299 288 267 244 230 232 232 231 229 229 232 230 231 228 225 167 168 154 169 183
351 155 151 153 156 164 163 163 160 150 161 192 254 316 355 354 2 5 17 19 21 14 351 356 356 348 351 330 284 263 240 242 234 232 228 228 174 157 145 143 162 167
279 321 1 10 358 195 181 177 177 168 159 176 179 164 181 52 54 71 118 85 85 54 38 16 17 17 360 355 355 340 304 282 294 277 307 337 25 35 40 36 82 120
189 155 121 150 248 281 228 199 166 148 150 146 136 154 144 112 103 311 26 53 33 43 47 37 24 10 360 356 359 359 360 352 333 18 72 79 91 134 145 145 351 2
139 150 182 183 174 207 276 265 113 99 84 96 89 40 34 24 15 53 52 52 62 56 48 31 20 354 349 353 2 357 358 28 68 94 118 140 130 126 119 124 214 206
122 193 212 192 175 164 176 178 125 126 122 90 49 53 64 37 54 49 41 41 51 57 48 33 2 345 337 346 353 1 7 29 107 130 102 107 115 127 154 181 188 124
169 187 217 248 178 160 153 136 118 93 89 96 108 104 87 72 61 72 69 63 66 68 59 28 3 347 330 333 347 351 11 72 103 102 107 122 114 113 119 112 95 89
175 183 182 202 221 196 133 128 132 148 131 97 88 98 102 100 90 88 80 62 58 60 61 19 7 349 339 332 347 340 328 132 130 129 120 91 79 81 80 70 68 71
206 181 171 190 207 176 141 131 139 141 128 114 103 107 119 122 104 88 72 67 70 87 107 61 2 7 359 1 3 359 9 89 88 91 83 98 95 91 85 80 78 75
232 220 186 164 153 126 112 112 108 104 99 106 100 89 80 71 73 71 74 71 60 63 69 52 22 9 10 20 19 26 58 68 63 60 49 36 102 93 79 68 61 82
183 204 182 116 103 96 96 90 86 94 107 110 113 109 89 75 69 72 66 66 68 66 61 62 39 19 13 15 34 42 92 100 109 108 102 56 24 83 79 83 95 93
132 107 82 83 84 88 95 96 94 99 104 96 95 96 94 91 89 84 83 64 51 58 56 52 38 26 20 22 40 60 77 83 88 91 85 81 76 75 69 64 50 60
90 84 79 81 84 80 88 92 98 94 95 99 94 96 102 96 89 81 72 58 47 49 56 54 49 35 27 31 37 45 65 81 84 94 95 95 86 90 91 77 62 64